Location: Dąbrówka
(52.2799°N, 15.8070°E)
Time: 12:29:20
(UTC+01:00)

ISS - Visible Passes

Search period start: 24 January 2019 00:00
Search period end: 03 February 2019 00:00
Orbit: 404 x 410 km, 51.6° (Epoch: 24 January)

Date Brightness Start Highest point End Pass type
(mag) Time Alt. Az. Time Alt. Az. Time Alt. Az.
24 Jan -1.5 17:50:00 10° SSE 17:51:18 12° SE 17:52:04 11° SE visible
24 Jan -1.0 19:24:03 10° SW 19:24:47 15° SW 19:24:47 15° SW visible
25 Jan -2.6 18:33:00 10° SW 18:35:41 30° SSE 18:35:41 30° SSE visible
26 Jan -2.1 17:42:09 10° SSW 17:44:44 21° SSE 17:46:30 14° ESE visible
26 Jan -1.7 19:17:36 10° WSW 19:19:14 26° WSW 19:19:14 26° WSW visible
27 Jan -3.4 18:26:20 10° SW 18:29:32 48° SSE 18:30:00 44° SE visible
27 Jan -0.2 20:02:39 10° W 20:02:43 10° W 20:02:43 10° W visible
28 Jan -2.8 17:35:10 10° SW 17:38:13 35° SSE 17:40:43 14° E visible
28 Jan -2.4 19:11:15 10° W 19:13:26 38° WSW 19:13:26 38° WSW visible
29 Jan -3.7 18:19:52 10° WSW 18:23:09 68° S 18:24:07 41° E visible
29 Jan -0.5 19:56:20 10° W 19:56:50 14° W 19:56:50 14° W visible
30 Jan -3.4 17:28:32 10° WSW 17:31:46 55° SSE 17:34:47 12° E visible
30 Jan -3.0 19:04:55 10° W 19:07:30 51° W 19:07:30 51° W visible
31 Jan -3.8 18:13:28 10° W 18:16:47 81° S 18:18:09 32° E visible
31 Jan -0.8 19:49:59 10° W 19:50:52 17° W 19:50:52 17° W visible
01 Feb -3.7 17:22:02 10° WSW 17:25:20 74° S 17:28:38 10° E visible
01 Feb -3.5 18:58:31 10° W 19:01:32 65° SW 19:01:32 65° SW visible
02 Feb -3.8 18:07:04 10° W 18:10:22 80° S 18:12:12 24° E visible
02 Feb -1.1 19:43:37 10° W 19:44:55 20° W 19:44:55 20° W visible
